Change the Weather History Date:

Sunday, January 23, 2011

  Actual Average Record
Temperature  
Mean Temperature 26 °F 34 °F  
Max Temperature 27 °F 43 °F 71 °F (1967)
Min Temperature 24 °F 26 °F -13 °F (1963)
Degree Days  
Heating Degree Days 39 31  
Month to date heating degree days 823 707  
Since 1 July heating degree days 2562 2371  
Cooling Degree Days 0 0  
Month to date cooling degree days 0 0  
Year to date cooling degree days 0 0  
Moisture  
Dew Point 17 °F    
Average Humidity 69    
Maximum Humidity 74    
Minimum Humidity 63    
Precipitation  
Precipitation T in 0.08 in 0.94 in (1949)
Month to date precipitation 1.29 2.59  
Year to date precipitation 1.29 2.59  
Sea Level Pressure  
Sea Level Pressure 30.22 in    
Wind  
Wind Speed 6 mph (NNE)    
Max Wind Speed 9 mph    
Max Gust Speed 13 mph    
Visibility 10 miles    
Events      
T = Trace of Precipitation, MM = Missing Value Source: NWS Daily Summary

Daily Weather History Graph

Daily Weather History Graph

Search for Another Location

Airport or City:

Trip Planner

Search our weather history database for the weather conditions in past years. The results will help you decide how hot, cold, wet, or windy it might be!

Date:

Astronomy

Jan. 23, 2011 Rise Set
Actual Time 7:54 AM EST 5:54 PM EST
Civil Twilight 7:25 AM EST 6:23 PM EST
Nautical Twilight 6:53 AM EST 6:55 PM EST
Astronomical Twilight 6:22 AM EST 7:26 PM EST
Moon 10:49 PM EST (1/23) 9:55 AM EST (1/23)
Length of Visible Light 10h 57m
Length of Day
10h 00m
Waning Gibbous, 81% of the Moon is Illuminated
Jan 23
Waning Gibbous
Jan 26
Last Quarter
Feb 2
New
Feb 11
First Quarter
Feb 18
Full

Hourly Weather History & Observations

Time (EST) Temp. Windchill Dew Point Humidity Pressure Visibility Wind Dir Wind Speed Gust Speed Precip Events Conditions
12:06 AM 24.8 °F 17.9 °F 15.8 °F 69% 30.06 in 10.0 mi WNW 5.8 mph - N/A   Overcast
12:53 AM 26.1 °F 18.4 °F 17.1 °F 69% 30.09 in 10.0 mi WNW 6.9 mph - N/A   Overcast
1:53 AM 26.1 °F 20.5 °F 18.0 °F 71% 30.09 in 10.0 mi NW 4.6 mph - N/A   Overcast
2:53 AM 26.1 °F 20.5 °F 18.0 °F 71% 30.12 in 10.0 mi NW 4.6 mph - N/A   Overcast
3:53 AM 26.1 °F 20.5 °F 17.1 °F 69% 30.15 in 10.0 mi NNW 4.6 mph - N/A   Overcast
4:53 AM 25.0 °F 19.3 °F 17.1 °F 72% 30.17 in 10.0 mi NNW 4.6 mph - N/A   Overcast
5:41 AM 24.8 °F 20.5 °F 17.6 °F 74% 30.15 in 10.0 mi NNE 3.5 mph - N/A   Overcast
5:53 AM 25.0 °F 19.3 °F 17.1 °F 72% 30.17 in 10.0 mi NE 4.6 mph - N/A   Overcast
6:53 AM 25.0 °F 20.7 °F 17.1 °F 72% 30.20 in 10.0 mi NNE 3.5 mph - N/A   Overcast
7:53 AM 25.0 °F 18.1 °F 18.0 °F 75% 30.22 in 10.0 mi ENE 5.8 mph - N/A   Overcast
8:53 AM 24.1 °F 17.0 °F 17.1 °F 75% 30.25 in 7.0 mi NE 5.8 mph - N/A   Overcast
9:42 AM 24.8 °F 16.9 °F 17.6 °F 74% 30.24 in 10.0 mi ENE 6.9 mph - N/A   Overcast
9:53 AM 24.1 °F 16.0 °F 17.1 °F 75% 30.26 in 10.0 mi NE 6.9 mph - N/A   Overcast
10:49 AM 24.8 °F 19.1 °F 17.6 °F 74% 30.27 in 10.0 mi NE 4.6 mph - N/A   Overcast
10:53 AM 25.0 °F 17.1 °F 17.1 °F 72% 30.29 in 10.0 mi ENE 6.9 mph - N/A   Overcast
11:53 AM 25.0 °F 19.3 °F 16.0 °F 69% 30.30 in 10.0 mi NE 4.6 mph - N/A   Overcast
12:38 PM 26.6 °F 22.6 °F 15.8 °F 64% 30.27 in 10.0 mi ENE 3.5 mph - N/A   Overcast
12:53 PM 26.1 °F 21.9 °F 16.0 °F 66% 30.28 in 10.0 mi East 3.5 mph - N/A   Overcast
1:53 PM 26.1 °F 21.9 °F 16.0 °F 66% 30.26 in 10.0 mi NNE 3.5 mph - N/A   Overcast
2:53 PM 26.1 °F - 16.0 °F 66% 30.26 in 10.0 mi North - - N/A   Overcast
3:53 PM 27.0 °F 21.6 °F 16.0 °F 63% 30.25 in 10.0 mi East 4.6 mph - N/A   Overcast
4:53 PM 27.0 °F - 16.0 °F 63% 30.25 in 10.0 mi North - - N/A   Partly Cloudy
5:53 PM 27.0 °F - 17.1 °F 66% 30.25 in 10.0 mi North - - N/A   Overcast
6:53 PM 27.0 °F - 16.0 °F 63% 30.25 in 10.0 mi North - - N/A   Mostly Cloudy
7:53 PM 26.1 °F - 16.0 °F 66% 30.26 in 10.0 mi North - - N/A   Mostly Cloudy
8:53 PM 26.1 °F - 16.0 °F 66% 30.26 in 10.0 mi North - - N/A   Overcast
9:53 PM 25.0 °F 17.1 °F 15.1 °F 66% 30.26 in 10.0 mi East 6.9 mph - 0.00 in   Overcast
10:53 PM 25.0 °F - 15.1 °F 66% 30.25 in 10.0 mi North - - N/A   Overcast
11:53 PM 24.1 °F - 17.1 °F 75% 30.23 in 10.0 mi North - - 0.00 in   Overcast